Flag for U.S.A. Weather past 2 weeks in Lafayette, Louisiana, U.S.A.

Now
76 °F

Clear.


Feels Like: 75 °F
Forecast: 73 / 88 °F
Wind: No wind

Location: Lafayette Regional Airport

Current Time: Sep 4, 2015 at 3:15:11 AM

Latest Report: Sep 4, 2015 at 2:53 AM


Visibility: 10 mi

Pressure: 29.93 "Hg

Humidity: 94%

Dew point: 74 °F

Location of LafayetteLocation

Historic Weather in Lafayette — Graph

°F

Lafayette temperature yesterday

Maximum temperature yesterday: 88 °F (at 12:53 PM)
Minimum temperature yesterday: 74 °F (at 1:53 AM)
Average temperature yesterday: 79 °F

Past Weeks' High & Low Weather Summary

 TemperatureHumidityPressure
High96 °F (Aug 24, 1:53 PM)97% (Aug 22, 3:53 AM)30.11 "Hg (Aug 22, 3:53 AM)
Low64 °F (Aug 26, 6:53 AM)30% (Aug 27, 4:53 PM)29.88 "Hg (Aug 20, 2:53 AM)
Average80 °F75%30.01 "Hg
* Reported Aug 20 1:53 AM — Sep 4 1:53 AM, Lafayette, Weather by CustomWeather, © 2015

Note: Actual official high and low records may vary slightly from our data, if they occured in-between our weather recording intervals... More about our weather records

Advertising

Lafayette weather history for previous 24 hours

 ConditionsComfort  
Time TempWeatherWind HumidityBarometerVisibility
1:53 AM
Fri, Sep 4
76 °FPassing clouds.No wind94%29.93 "Hg10 mi
12:53 AM76 °FClear.No wind94%29.92 "Hg10 mi
11:53 PM
Thu, Sep 3
77 °FClear.No wind94%29.92 "Hg10 mi
10:53 PM77 °FClear.No wind94%29.93 "Hg10 mi
9:53 PM78 °FClear.No wind90%29.92 "Hg10 mi
8:53 PM79 °FClear.No wind90%29.91 "Hg10 mi
7:53 PM80 °FSunny.No wind85%29.89 "Hg10 mi
6:53 PM83 °FSunny.No wind72%29.89 "Hg10 mi
5:53 PM82 °FSunny.5 mph79%29.90 "Hg10 mi
4:53 PM82 °FPartly sunny.5 mph79%29.90 "Hg10 mi
3:53 PM85 °FBroken clouds.5 mph80%29.93 "Hg10 mi
3:00 PM84 °FPartly sunny.No wind80%29.94 "Hg10 mi
1:53 PM83 °FPartly sunny.9 mph74%29.95 "Hg10 mi
12:53 PM88 °FPartly sunny.3 mph59%29.96 "Hg10 mi
11:53 AM87 °FPartly sunny.3 mph65%29.99 "Hg10 mi
10:53 AM86 °FScattered clouds.3 mph67%30.00 "Hg10 mi
9:53 AM82 °FPartly sunny.5 mph79%30.00 "Hg10 mi
8:53 AM79 °FPassing clouds.3 mph88%29.99 "Hg10 mi
8:00 AM76 °FPassing clouds.6 mph94%29.99 "Hg10 mi
6:53 AM74 °FPassing clouds.No wind94%29.97 "Hg10 mi
5:53 AM74 °FClear.3 mph94%29.97 "Hg10 mi
4:53 AM74 °FClear.No wind94%29.97 "Hg10 mi
3:53 AM74 °FClear.No wind97%29.96 "Hg10 mi
Weather by CustomWeather, © 2015

See weather overviewHow to use our weather pages